Cloud_Cover
100 100 60 100 100 100 100 100 100 100 100 97 95 97 100 100 100 100 100 100 100 100 100 96 38 7 58 70 39 51 8 97 10 89 22 26 5 29 31 22 78 37 13
100 100 100 100 100 100 99 100 100 100 100 100 100 100 100 100 100 100 100 100 100 100 100 82 7 84 4 5 0 0 64 93 56 100 14 41 49 100 39 8 39 100 94
100 100 100 100 100 99 37 100 100 100 100 100 100 100 100 100 100 100 93 54 49 100 13 7 0 36 48 1 12 3 7 5 5 1 25 70 70 37 43 55 98 95 74
5 25 97 100 100 100 100 100 100 100 100 100 100 100 100 100 100 100 30 78 76 10 0 14 98 75 37 18 62 100 26 34 97 100 17 32 45 100 70 69 75 77 54
12 1 4 6 99 100 100 100 100 100 100 100 100 100 100 100 100 62 83 5 0 1 2 36 82 75 10 23 100 60 18 0 8 98 9 85 99 55 96 64 55 78 75
72 4 0 0 5 5 3 2 2 16 100 100 41 3 38 10 99 63 0 8 17 45 57 53 50 12 100 100 40 5 2 0 6 72 87 71 17 23 100 91 99 67 91
50 2 0 0 0 0 0 0 0 8 5 99 100 4 8 3 2 0 1 2 14 46 50 14 49 100 100 36 52 26 29 84 5 10 6 88 85 45 82 100 100 90 74
51 4 1 0 0 0 0 0 0 0 0 0 0 0 0 44 9 0 0 8 32 47 15 15 3 82 0 4 5 91 100 88 5 5 15 69 97 20 73 99 100 100 98
9 5 0 0 0 0 0 0 11 0 0 0 0 0 15 2 96 1 5 7 22 40 30 21 5 6 32 93 38 100 100 100 79 96 48 69 100 30 52 11 98 100 100
11 5 5 1 3 0 0 0 37 0 0 0 0 30 16 0 98 1 12 25 63 58 16 1 39 28 100 100 63 35 92 100 42 23 6 36 18 47 59 54 96 82 100
100 32 50 10 24 44 0 0 11 0 0 28 83 83 42 2 20 100 100 36 94 29 30 67 57 100 100 100 96 9 90 100 94 97 100 92 77 55 100 89 18 44 91
98 98 100 2 39 0 34 0 1 4 56 96 67 78 100 19 40 93 100 40 3 56 100 99 20 100 100 100 73 100 100 94 100 100 82 100 94 64 95 96 25 51 44
92 98 4 35 18 48 15 56 96 100 88 100 92 99 100 100 100 100 100 100 43 22 76 87 98 100 100 99 100 100 100 100 100 100 90 100 34 49 98 63 27 6 8
100 88 100 89 89 50 100 100 85 100 100 100 100 92 100 100 4 0 4 5 48 2 68 18 40 72 88 63 60 49 92 100 100 100 98 65 42 55 39 49 73 46 70
100 100 85 100 100 100 100 73 97 97 14 57 100 100 100 26 5 0 2 0 44 35 5 17 22 71 70 33 44 64 67 100 100 100 93 98 100 100 92 99 99 100 100
100 100 100 100 100 100 100 100 100 100 100 100 100 95 16 71 73 1 63 87 85 50 51 89 64 92 99 100 83 68 48 92 96 94 100 100 100 97 100 97 51 41 90
100 100 100 100 100 100 100 100 100 100 100 100 100 95 58 97 100 100 100 100 100 82 43 99 52 52 70 81 96 100 96 97 92 74 95 100 100 76 21 66 94 100 66
100 100 100 100 100 100 100 100 100 100 100 100 88 38 100 100 100 100 100 76 58 67 87 76 69 90 97 88 99 96 98 77 96 91 84 71 80 100 97 91 55 80 63
100 100 100 100 94 92 86 100 100 100 92 97 100 100 100 100 100 100 100 82 89 60 65 89 83 97 93 78 94 91 100 91 96 100 100 88 97 98 76 68 97 72 60
92 100 100 100 100 100 100 73 68 100 95 100 100 100 100 100 100 100 87 94 100 100 100 86 100 100 99 100 100 100 100 100 100 62 97 70 55 64 67 95 91 94 76
90 100 100 100 100 87 100 75 98 82 100 100 100 100 100 100 100 94 100 100 100 100 100 100 69 100 100 100 100 100 96 93 79 99 98 96 70 95 70 99 92 99 96
100 96 87 42 49 60 100 97 100 99 97 92 100 100 86 100 100 100 100 100 100 100 100 96 98 100 100 98 97 41 89 74 89 87 49 82 73 61 74 94 100 100 94
100 4 41 66 92 100 100 100 100 100 98 100 100 100 69 100 100 100 100 100 88 100 82 100 100 100 79 78 100 88 64 74 93 86 76 46 42 60 87 59 53 8 7
92 55 98 82 100 100 100 100 100 98 100 93 100 100 100 100 100 100 100 100 100 100 100 98 71 92 99 100 100 100 100 46 73 46 57 17 5 5 5 6 31 43 51
44 89 100 100 100 100 100 100 100 100 94 100 100 100 100 100 100 100 100 100 100 99 62 99 98 82 61 99 68 76 99 97 99 89 47 99 90 78 98 73 54 35 27
100 100 100 100 100 100 99 97 92 97 100 100 100 100 100 100 100 100 100 100 100 100 82 100 100 100 100 100 99 78 27 60 39 13 9 96 78 65 51 73 70 69 99